Location: Central Falls
(41.8900°N, 71.3929°W)
Time: 07:32:56
(UTC+00:00)

Tiros 1 despin weight - Pass Details

Date: 10 December 2023
Orbit: 581 x 624 km, 48.2° (Epoch: 29 February)

Event Time Altitude Azimuth Distance (km) Brightness Sun altitude
Rises 02:29:12 0° 296° (WNW) 2,798 - -57.1°
Reaches altitude 10° 02:31:29 10° 294° (WNW) 1,896 - -57.5°
Maximum altitude 02:35:47 69° 212° (SSW) 621 - -58.2°
Drops below altitude 10° 02:40:06 10° 129° (SE) 1,898 - -58.9°
Sets 02:42:23 0° 127° (SE) 2,801 - -59.3°
